View from above orbital plane
|
View from above satellite
|
Ground track
|
The orbit data is extracted from the following two-line orbital elements,
1 31701U 07027A 18108.82021426 0.00000000 00000-0 00000-0 0 04
2 31701 63.4051 24.1213 0218000 21.7070 338.2929 13.40748849 08
Epoch (UTC): | 18 April 2018 19:41:06 |
Eccentricity: | 0.0218000 |
inclination: | 63.4051° |
perigee height: | 943 km |
apogee height: | 1269 km |
right ascension of ascending node: | 24.1213° |
argument of perigee: | 21.7070° |
revolutions per day: | 13.40748849 |
mean anomaly at epoch: | 338.2929° |
orbit number at epoch: | 0 |
The dashed part of the orbit path shows where the satellite is in the earth's shadow,
|
|